星链-2011 (STARLINK-2011 )

导读 | 豆包AI

STARLINK-2011是美国太空探索技术公司(SpaceX)星链(Starlink)星座的组网卫星,于2021年1月20日发射升空,属于星链项目的批量部署卫星。星链旨在构建全球卫星互联网星座,该卫星入轨后承担卫星宽带通信服务的组网任务,助力实现全球覆盖的互联网接入,为偏远地区等场景提供网络连接支持。

Basic Information
目录编号:
47350
目录名称:
STARLINK-2011
国际标识:
2021-005B
轨道中心:
EARTH
卫星名称:
星链-2011
卫星全名:
星链-2011 (STARLINK-2011 )
卫星状态:
已陨落 最后检测时间 2024-05-20
发射日期:
2021-01-20 UTC
国别 :
美国 (US)
星等 :
--
Orbit Information
数据来源 国际轨道数据
星历时间: 2024-05-21T01:34:56+0800
轨道信息已过期709天
半长轴: 6562.56km
偏心率: 0.0002662
轨道倾角: 53.042°
近地点辐角 320.283°
升交点赤经 105.139°
平近点角 174.116°
近地点: 182.678km
远地点: 186.172km
周期: 88.180分钟
每日圈数: 16.330252
Detailed Information
固有亮度:
5
最大亮度:
2.5
卫星平台:
Starlink V1.0
覆盖范围:
全球
运营商:
太空探索技术公司
运营商所在国:
美国
制造商(研发单位):
太空探索技术公司
制造商所在国:
美国
使用方式:
暂无
Satellite Introduction
星链(Starlink)计划是由太空探索技术公司(SpaceX)提出的一个巨型低轨卫星互联网星座项目,计划在2019年至2024年间在太空搭建由约1.2万颗卫星组成的“星链”网络,其中1584颗将部署在地球上空550千米处的近地轨道,并从2020年开始工作。该卫星已陨落。